EN

Hourly Weather Al-Ahmadi

Today, 24 November, Tuesday

Time Temperature Precipitation Wind Pressure Humidity
00:00 +19°C° 0 mm 6 mps 755 mmHg 35%
01:00 +17°C° 0 mm 6 mps 755 mmHg 36%
02:00 +17°C° 0 mm 6 mps 755 mmHg 37%
03:00 +17°C° 0 mm 6 mps 754 mmHg 38%
04:00 +16°C° 0 mm 6 mps 755 mmHg 39%
05:00 +16°C° 0 mm 6 mps 755 mmHg 41%
06:00 +16°C° 0 mm 6 mps 755 mmHg 42%
07:00 +16°C° 0 mm 6 mps 755 mmHg 39%
08:00 +17°C° 0 mm 6 mps 756 mmHg 37%
09:00 +19°C° 0 mm 6 mps 756 mmHg 33%
10:00 +20°C° 0 mm 6 mps 756 mmHg 30%
11:00 +21°C° 0 mm 6 mps 755 mmHg 26%
12:00 +22°C° 0 mm 6 mps 755 mmHg 23%
13:00 +22°C° 0 mm 6 mps 755 mmHg 22%
14:00 +22°C° 0 mm 6 mps 754 mmHg 21%
15:00 +22°C° 0 mm 6 mps 754 mmHg 21%
16:00 +21°C° 0 mm 6 mps 754 mmHg 22%
17:00 +21°C° 0 mm 5 mps 754 mmHg 23%
18:00 +20°C° 0 mm 5 mps 755 mmHg 25%
19:00 +20°C° 0 mm 5 mps 755 mmHg 25%
20:00 +19°C° 0 mm 5 mps 755 mmHg 26%
21:00 +19°C° 0 mm 4 mps 754 mmHg 27%
22:00 +19°C° 0 mm 4 mps 754 mmHg 27%
23:00 +18°C° 0 mm 4 mps 754 mmHg 27%

Tomorrow, 25 November, Wednesday

Time Temperature Precipitation Wind Pressure Humidity
00:00 +18°C° 0 mm 4 mps 754 mmHg 28%
01:00 +18°C° 0 mm 3 mps 754 mmHg 28%
02:00 +17°C° 0 mm 3 mps 754 mmHg 28%
03:00 +17°C° 0 mm 3 mps 754 mmHg 29%
04:00 +17°C° 0 mm 3 mps 754 mmHg 29%
05:00 +17°C° 0 mm 2 mps 754 mmHg 29%
06:00 +16°C° 0 mm 2 mps 755 mmHg 29%
07:00 +17°C° 0 mm 2 mps 755 mmHg 27%
08:00 +18°C° 0 mm 2 mps 755 mmHg 25%
09:00 +19°C° 0 mm 2 mps 756 mmHg 23%
10:00 +21°C° 0 mm 1 mps 755 mmHg 21%
11:00 +22°C° 0 mm 1 mps 755 mmHg 19%
12:00 +21°C° 0 mm 0 mps 755 mmHg 18%
13:00 +23°C° 0 mm 1 mps 754 mmHg 18%
14:00 +24°C° 0 mm 2 mps 754 mmHg 19%
15:00 +24°C° 0 mm 3 mps 753 mmHg 20%
16:00 +22°C° 0 mm 3 mps 753 mmHg 28%
17:00 +21°C° 0 mm 4 mps 753 mmHg 36%
18:00 +20°C° 0 mm 4 mps 753 mmHg 43%
19:00 +20°C° 0 mm 4 mps 753 mmHg 46%
20:00 +20°C° 0 mm 4 mps 754 mmHg 49%
21:00 +20°C° 0 mm 5 mps 754 mmHg 52%
22:00 +20°C° 0 mm 5 mps 753 mmHg 53%
23:00 +20°C° 0 mm 5 mps 753 mmHg 54%

Day after tomorrow, 26 November, Thursday

Time Temperature Precipitation Wind Pressure Humidity
00:00 +20°C° 0 mm 6 mps 753 mmHg 54%
01:00 +19°C° 0 mm 6 mps 752 mmHg 57%
02:00 +18°C° 0 mm 7 mps 752 mmHg 59%
03:00 +18°C° 0 mm 7 mps 752 mmHg 62%
04:00 +18°C° 0 mm 8 mps 752 mmHg 63%
05:00 +17°C° 0 mm 8 mps 752 mmHg 64%
06:00 +17°C° 0 mm 8 mps 752 mmHg 65%
07:00 +18°C° 0 mm 9 mps 753 mmHg 56%
08:00 +19°C° 0 mm 9 mps 753 mmHg 47%
09:00 +22°C° 0 mm 10 mps 753 mmHg 38%
10:00 +23°C° 0 mm 10 mps 753 mmHg 34%
11:00 +26°C° 0 mm 10 mps 752 mmHg 30%
12:00 +27°C° 0 mm 10 mps 752 mmHg 25%
13:00 +28°C° 0 mm 9 mps 752 mmHg 25%
14:00 +28°C° 0 mm 8 mps 751 mmHg 24%
15:00 +28°C° 0 mm 8 mps 751 mmHg 23%
16:00 +28°C° 0 mm 7 mps 751 mmHg 26%
17:00 +27°C° 0 mm 7 mps 751 mmHg 29%
18:00 +26°C° 0 mm 7 mps 752 mmHg 32%
19:00 +26°C° 0 mm 7 mps 752 mmHg 36%
20:00 +26°C° 0 mm 6 mps 752 mmHg 39%
21:00 +24°C° 0 mm 6 mps 752 mmHg 42%
22:00 +24°C° 0.1 mm 6 mps 752 mmHg 46%
23:00 +25°C° 0.1 mm 5 mps 752 mmHg 50%

27 November, Friday

Time Temperature Precipitation Wind Pressure Humidity
00:00 +23°C° 0.1 mm 5 mps 752 mmHg 54%
01:00 +23°C° 0.2 mm 5 mps 753 mmHg 58%
02:00 +23°C° 0.2 mm 5 mps 753 mmHg 62%
03:00 +23°C° 0.2 mm 5 mps 753 mmHg 67%
04:00 +23°C° 0.1 mm 5 mps 753 mmHg 66%
05:00 +23°C° 0.1 mm 5 mps 754 mmHg 64%
06:00 +22°C° 0.1 mm 4 mps 754 mmHg 63%
07:00 +23°C° 0 mm 5 mps 754 mmHg 57%
08:00 +23°C° 0 mm 5 mps 755 mmHg 51%
09:00 +24°C° 0 mm 6 mps 755 mmHg 44%
10:00 +26°C° 0 mm 6 mps 755 mmHg 41%
11:00 +27°C° 0 mm 6 mps 755 mmHg 38%
12:00 +27°C° 0 mm 6 mps 754 mmHg 35%
13:00 +28°C° 0 mm 6 mps 754 mmHg 34%
14:00 +28°C° 0 mm 6 mps 754 mmHg 33%
15:00 +28°C° 0 mm 6 mps 754 mmHg 32%
16:00 +27°C° 0 mm 6 mps 754 mmHg 36%
17:00 +26°C° 0 mm 5 mps 754 mmHg 41%
18:00 +25°C° 0 mm 5 mps 755 mmHg 46%
19:00 +25°C° 0.1 mm 4 mps 755 mmHg 48%
20:00 +25°C° 0.1 mm 3 mps 755 mmHg 49%
21:00 +25°C° 0.1 mm 2 mps 755 mmHg 51%
22:00 +24°C° 0 mm 3 mps 755 mmHg 53%
23:00 +23°C° 0 mm 4 mps 755 mmHg 56%

28 November, Saturday

Time Temperature Precipitation Wind Pressure Humidity
00:00 +23°C° 0 mm 4 mps 755 mmHg 59%
01:00 +23°C° 0.3 mm 4 mps 755 mmHg 63%
02:00 +23°C° 0.3 mm 4 mps 755 mmHg 68%
03:00 +22°C° 0.3 mm 3 mps 755 mmHg 72%
04:00 +22°C° 0.1 mm 3 mps 755 mmHg 68%
05:00 +22°C° 0.1 mm 3 mps 755 mmHg 65%
06:00 +22°C° 0.1 mm 3 mps 755 mmHg 61%
07:00 +22°C° 0.1 mm 3 mps 756 mmHg 60%
08:00 +22°C° 0.1 mm 3 mps 756 mmHg 58%
09:00 +22°C° 0.1 mm 3 mps 756 mmHg 56%
10:00 +24°C° 0 mm 3 mps 756 mmHg 56%
11:00 +23°C° 0 mm 4 mps 755 mmHg 55%
12:00 +25°C° 0 mm 4 mps 754 mmHg 55%
13:00 +25°C° 0.1 mm 4 mps 754 mmHg 54%
14:00 +26°C° 0.1 mm 4 mps 754 mmHg 54%
15:00 +26°C° 0.1 mm 4 mps 753 mmHg 53%
16:00 +25°C° 0.2 mm 4 mps 753 mmHg 59%
17:00 +25°C° 0.2 mm 4 mps 753 mmHg 65%
18:00 +23°C° 0.2 mm 4 mps 753 mmHg 71%
19:00 +23°C° 1.1 mm 4 mps 753 mmHg 73%
20:00 +22°C° 1.1 mm 3 mps 753 mmHg 75%
21:00 +23°C° 1.1 mm 2 mps 753 mmHg 78%
22:00 +22°C° 0.5 mm 3 mps 753 mmHg 77%
23:00 +22°C° 0.5 mm 4 mps 753 mmHg 76%

29 November, Sunday

Time Temperature Precipitation Wind Pressure Humidity
00:00 +23°C° 0.5 mm 4 mps 752 mmHg 75%
01:00 +22°C° 0.8 mm 4 mps 752 mmHg 76%
02:00 +22°C° 0.8 mm 4 mps 752 mmHg 77%
03:00 +22°C° 0.8 mm 4 mps 752 mmHg 78%
04:00 +22°C° 0.2 mm 4 mps 752 mmHg 78%
05:00 +21°C° 0.2 mm 5 mps 752 mmHg 77%
06:00 +21°C° 0.2 mm 5 mps 752 mmHg 77%
07:00 +22°C° 0.1 mm 5 mps 752 mmHg 70%
08:00 +22°C° 0.1 mm 5 mps 752 mmHg 62%
09:00 +23°C° 0.1 mm 5 mps 753 mmHg 55%
10:00 +24°C° 0.8 mm 6 mps 752 mmHg 52%
11:00 +26°C° 0.8 mm 6 mps 752 mmHg 49%
12:00 +26°C° 0.8 mm 6 mps 751 mmHg 46%
13:00 +27°C° 0.1 mm 6 mps 751 mmHg 46%
14:00 +27°C° 0.1 mm 6 mps 751 mmHg 46%
15:00 +27°C° 0.1 mm 6 mps 751 mmHg 46%
16:00 +26°C° 0.3 mm 6 mps 751 mmHg 53%
17:00 +25°C° 0.3 mm 5 mps 751 mmHg 59%
18:00 +23°C° 0.3 mm 5 mps 752 mmHg 65%
19:00 +22°C° 0.2 mm 5 mps 752 mmHg 68%
20:00 +21°C° 0.2 mm 6 mps 752 mmHg 71%
21:00 +20°C° 0.2 mm 6 mps 753 mmHg 75%
22:00 +20°C° 0 mm 6 mps 753 mmHg 73%
23:00 +20°C° 0 mm 6 mps 753 mmHg 71%
Show more

We Need Your Consent

Meteoprog and our Service Providers may store and access personal data such as cookies, device identifiers or other similar technologies on your device and process such data to personalise content and ads, as well as provide social media features and to analyse the traffic.

  • Store and/or access information on your device

    Cookies, device identifiers or other information can be stored or accessed on your device for the purposes indicated above.

  • Personalised ads and content, ad and content measurement, audience insights, and products development

    Ads and content can be personalised based on a profile. More data can be added to better personalise ads and content. Ad and content performance can be measured. Insights about the audience who saw the ads and content can be derived. Such data can be used to develop or improve user’s experience, systems and software.

By clicking ‘I Agree’ you will allow the use of indicated cookies, device identifiers, web beacons or other similar technologies. Your settings can be changed in the browser on your device.

For certain purposes, legitimate interests may be relied on, rather than consent. You can read more about this in our Privacy and Cookie Policy.